Location: Cortos
(40.7190°N, 4.5893°W)
Time: 09:49:05
(UTC+00:00)

Cosmos 2344 - Pass Details

Date: 05 July 2020
Orbit: 1249 x 2993 km, 63.3° (Epoch: 07 August)

Event Time Altitude Azimuth Distance (km) Brightness Sun altitude
Exits shadow 22:16:03 31° 150° (SSE) 2,033 4.1 -20.1°
Maximum altitude 22:18:23 39° 113° (ESE) 1,797 4.0 -20.3°
Drops below altitude 10° 22:25:18 10° 48° (NE) 3,323 5.9 -20.9°
Sets 22:28:25 0° 41° (NE) 4,405 6.7 -21.2°
